Left ArrowRight Arrow

31.31129, -92.44514

Hourly Observations for March 3, 2016

Temp ( °F °C ) Dew Point ( °F °C ) Humidity (%) Winds ( mph kmh ) Pressure ( in mb ) Visibility ( mi km ) Precip ( " mm )
12:07 am 00:07 Cloudy 60 15.6 50 10 70 70 S 15 24 29.97 1015 10 16 0.00 0.00
12:53 am 00:53 Cloudy 60 15.6 51 10.6 72 72 SSE 10 17 29.96 1015 10 16 0.00 0.00
1:53 am 01:53 Cloudy 60 15.6 52 11.1 75 75 SSE 12 19 29.93 1014 10 16 0.00 0.00
4:53 am 04:53 Cloudy 60 15.6 55 12.8 84 84 VRB 6 9 29.88 1012 10 16 0.00 0.00
5:53 am 05:53 Cloudy 60 15.6 57 13.9 90 90 SE 6 9 29.91 1013 10 16 0.00 0.03
6:36 am 06:36 Cloudy 61 16.1 58 14.4 90 90 SE 6 9 29.91 1013 10 16 0.00 0.00
6:53 am 06:53 Cloudy 61 16.1 58 14.4 90 90 E 5 7 29.92 1013 10 16 0.00 0.00
7:08 am 07:08 Cloudy 62 16.7 58 14.4 86 86 ESE 5 7 29.91 1013 10 16 0.00 0.00
7:39 am 07:39 Cloudy 61 16.1 58 14.4 90 90 SE 5 7 29.91 1013 10 16 0.00 0.00
7:48 am 07:48 Cloudy 61 16 57 14 88 88 SSE 7 11 29.91 1013 10 16 0.00 0.00
7:53 am 07:53 Cloudy 61 16.1 58 14.4 90 90 SSE 8 13 29.93 1014 9 14 0.00 0.00
8:14 am 08:14 Cloudy with Light Rain 60 15.6 59 15 96 96 SSE 8 13 29.91 1013 3 4 0.00 0.03
8:24 am 08:24 Cloudy with Mist and Fog 61 16.1 60 15.6 97 97 SE 6 9 29.91 1013 4 6 0.00 0.03
8:34 am 08:34 Cloudy with Mist and Fog 62 16.7 61 16.1 96 96 SSE 7 11 29.91 1013 6 10 0.00 0.03
8:53 am 08:53 Cloudy 63 17.2 62 16.7 97 97 SSE 8 13 29.93 1013 7 11 0.00 0.03
9:02 am 09:02 Cloudy 63 17.2 62 16.7 97 97 SSE 8 13 29.91 1013 7 11 0.00 0.00
9:53 am 09:53 Cloudy 67 19.4 64 17.8 91 91 SW 10 17 29.92 1013 8 13 0.00 0.00
10:53 am 10:53 Cloudy 69 20.6 64 17.8 84 84 SW 13 20 29.91 1013 8 13 0.00 0.00
11:48 am 11:48 Partly Cloudy 73 23 64 18 74 74 WSW 15 24 29.88 1012 9 14 0.00 0.00
11:53 am 11:53 Partly Cloudy 74 23.3 65 18.3 74 74 WSW 12 19 29.89 1012 9 14 0.00 0.00
12:53 pm 12:53 Partly Cloudy 77 25 63 17.2 62 62 WSW 16 26 29.85 1011 9 14 0.00 0.00
1:14 pm 13:14 Mostly Cloudy 79 26.1 62 16.7 56 56 W 18 30 29.83 1010 10 16 0.00 0.00
1:53 pm 13:53 Partly Cloudy 79 26.1 59 15 50 50 W 17 28 29.84 1011 10 16 0.00 0.00
2:53 pm 14:53 Mostly Sunny 80 26.7 57 13.9 45 45 WNW 14 22 29.84 1010 10 16 0.00 0.00
3:53 pm 15:53 Cloudy 77 25 55 12.8 47 47 NW 15 24 29.83 1010 10 16 0.00 0.00
4:53 pm 16:53 Sunny 77 25 45 7.2 32 32 NW 16 26 29.86 1011 10 16 0.00 0.00
5:53 pm 17:53 Sunny 73 22.8 44 6.7 35 35 NNW 15 24 29.91 1013 10 16 0.00 0.00
6:53 pm 18:53 Clear 68 20 43 6.1 40 40 NNW 10 17 29.96 1014 10 16 0.00 0.00
7:53 pm 19:53 Clear 66 18.9 39 3.9 37 37 NW 8 13 30.00 1016 10 16 0.00 0.00
8:53 pm 20:53 Clear 62 16.7 33 0.6 34 34 NNW 10 17 30.03 1017 10 16 0.00 0.00
9:53 pm 21:53 Clear 61 16.1 34 1.1 36 36 N 5 7 30.06 1018 10 16 0.00 0.00
10:53 pm 22:53 Clear 58 14.4 42 5.6 56 56 N 5 7 30.06 1018 10 16 0.00 0.00
11:53 pm 23:53 Clear 52 11.1 43 6.1 72 72 NW 6 9 30.08 1019 10 16 0.00 0.00

Powered by Vaisala Xweather